Location: Joplin, MO
(37.0842°N, 94.5133°W)
Time: 14:29:31
(UTC+02:00)

A-11 Canister half - All Passes

Search period start: 30 March 2023 00:00
Search period end: 09 April 2023 00:00
Orbit: 1512 x 1687 km, 47.2° (Epoch: 29 March)

Date Brightness Start Highest point End Pass type
(mag) Time Alt. Az. Time Alt. Az. Time Alt. Az.
30 Mar - 01:25:56 10° SSE 01:30:48 15° ESE 01:35:44 10° E daylight
30 Mar - 03:24:48 10° SW 03:34:13 61° SE 03:44:00 10° ENE visible
30 Mar - 05:29:43 10° W 05:39:25 61° NNW 05:49:27 10° ENE visible
30 Mar - 07:36:29 10° WNW 07:46:05 48° N 07:55:51 10° ENE visible
30 Mar - 09:42:18 10° WNW 09:52:30 73° NNE 10:02:40 10° ESE visible
30 Mar - 11:47:49 10° WNW 11:57:16 45° SW 12:06:37 10° SSE visible
31 Mar - 01:03:52 10° SSE 01:07:58 13° ESE 01:12:05 10° E daylight
31 Mar - 03:01:59 10° SSW 03:11:17 58° SE 03:20:58 10° ENE visible
31 Mar - 05:06:41 10° WSW 05:16:23 63° NNW 05:26:25 10° ENE visible
31 Mar - 07:13:26 10° WNW 07:23:00 47° N 07:32:45 10° ENE visible
31 Mar - 09:19:19 10° WNW 09:29:28 70° NNE 09:39:38 10° ESE visible
31 Mar - 11:24:46 10° WNW 11:34:20 48° SW 11:43:51 10° SSE visible
01 Apr - 00:42:05 10° SE 00:45:08 12° ESE 00:48:12 10° ESE daylight
01 Apr - 02:39:10 10° SSW 02:48:22 54° SE 02:57:56 10° ENE daylight
01 Apr - 04:43:41 10° WSW 04:53:21 65° NNW 05:03:23 10° ENE visible
01 Apr - 06:50:23 10° WNW 06:59:55 47° N 07:09:39 10° ENE visible
01 Apr - 08:56:20 10° WNW 09:06:26 68° NNE 09:16:35 10° ESE visible
01 Apr - 11:01:44 10° WNW 11:11:25 51° SW 11:21:03 10° SSE visible
01 Apr - 13:12:14 10° WSW 13:14:44 11° WSW 13:17:14 10° SW visible
02 Apr - 00:21:06 10° SE 00:22:18 10° ESE 00:23:30 10° ESE daylight
02 Apr - 02:16:24 10° SSW 02:25:28 51° SE 02:34:53 10° ENE daylight
02 Apr - 04:20:40 10° WSW 04:30:20 67° NNW 04:40:23 10° ENE visible
02 Apr - 06:27:20 10° WNW 06:36:50 47° N 06:46:34 10° ENE visible
02 Apr - 08:33:21 10° WNW 08:43:24 66° NNE 08:53:32 10° ESE visible
02 Apr - 10:38:41 10° WNW 10:48:28 55° SW 10:58:12 10° SSE visible
02 Apr - 12:48:05 10° W 12:51:53 13° WSW 12:55:40 10° SW visible
03 Apr - 01:53:37 10° SSW 02:02:34 48° SE 02:11:50 10° ENE daylight
03 Apr - 03:57:40 10° WSW 04:07:19 69° NNW 04:17:22 10° ENE visible
03 Apr - 06:04:17 10° WNW 06:13:45 47° N 06:23:27 10° ENE visible
03 Apr - 08:10:21 10° WNW 08:20:22 63° NNE 08:30:28 10° ESE visible
03 Apr - 10:15:40 10° WNW 10:25:32 58° SW 10:35:22 10° SSE visible
03 Apr - 12:24:20 10° W 12:29:01 14° WSW 12:33:43 10° SSW visible
04 Apr - 01:30:52 10° SSW 01:39:40 44° SE 01:48:46 10° ENE daylight
04 Apr - 03:34:41 10° WSW 03:44:18 72° NNW 03:54:21 10° ENE visible
04 Apr - 05:41:14 10° WNW 05:50:40 47° N 06:00:22 10° ENE visible
04 Apr - 07:47:22 10° WNW 07:57:19 61° NNE 08:07:24 10° ESE visible
04 Apr - 09:52:39 10° WNW 10:02:34 61° SW 10:12:30 10° SE visible
04 Apr - 12:00:45 10° W 12:06:10 16° WSW 12:11:34 10° SSW visible
05 Apr - 01:08:09 10° SSW 01:16:46 41° SE 01:25:42 10° ENE daylight
05 Apr - 03:11:42 10° WSW 03:21:19 75° NNW 03:31:20 10° ENE visible
05 Apr - 05:18:11 10° WNW 05:27:35 47° N 05:37:17 10° ENE visible
05 Apr - 07:24:22 10° WNW 07:34:16 60° NNE 07:44:19 10° E visible
05 Apr - 09:29:39 10° WNW 09:39:37 65° SW 09:49:38 10° SE visible
05 Apr - 11:37:18 10° W 11:43:18 18° WSW 11:49:17 10° SSW night (unlit)
06 Apr - 00:45:26 10° SSW 00:53:53 39° SE 01:02:38 10° ENE daylight
06 Apr - 02:48:44 10° WSW 02:58:19 78° NNW 03:08:20 10° ENE visible
06 Apr - 04:55:08 10° W 05:04:31 48° N 05:14:12 10° ENE visible
06 Apr - 07:01:23 10° WNW 07:11:13 58° NNE 07:21:14 10° E visible
06 Apr - 09:06:39 10° WNW 09:16:40 69° SW 09:26:44 10° SE visible
06 Apr - 11:13:55 10° W 11:20:25 19° SW 11:26:55 10° SSW night (unlit)
07 Apr - 00:22:46 10° SSW 00:31:01 36° SE 00:39:32 10° ENE daylight
07 Apr - 02:25:46 10° WSW 02:35:20 81° NNW 02:45:19 10° ENE daylight
07 Apr - 04:32:05 10° W 04:41:26 48° N 04:51:07 10° ENE visible
07 Apr - 06:38:24 10° WNW 06:48:10 56° NNE 06:58:08 10° E visible
07 Apr - 08:43:40 10° WNW 08:53:42 72° SW 09:03:49 10° SE visible
07 Apr - 10:50:37 10° W 10:57:32 21° SW 11:04:29 10° S night (unlit)
08 Apr - 00:00:05 10° S 00:08:08 33° SE 00:16:26 10° ENE daylight
08 Apr - 02:02:49 10° WSW 02:12:21 84° NNW 02:22:19 10° ENE daylight
08 Apr - 04:09:02 10° W 04:18:22 49° N 04:28:02 10° ENE visible
08 Apr - 06:15:24 10° WNW 06:25:06 55° NNE 06:35:02 10° E visible
08 Apr - 08:20:41 10° WNW 08:30:44 76° SW 08:40:53 10° SE visible
08 Apr - 10:27:21 10° WNW 10:34:39 23° SW 10:42:00 10° S night (unlit)
08 Apr - 23:37:28 10° S 23:45:17 31° SE 23:53:18 10° ENE daylight
